Starlink 2433

operational
NORAD ID: 47841 Int'l Des: 2021-018 Owner: SPXS Country: US Constellation: starlink
LEOCIRCULARSTARLINK_TYPE

关于 Starlink 2433

正在加载描述...

实时位置

正在加载3D地球...

即将过境

高度历史

Altitude vs Time

uPlot chart will show altitude changes over time

两行轨道根数

1 47841U 21018BG 25352.13282088 .00002156 00000-0 16358-3 0 9995
2 47841 53.0540 237.7407 0001774 91.6249 268.4943 15.06404136264584
Epoch: Dec 18, 2025 • Age: 22 hours

当前状态

高度 553.0 km
速度 7.59 km/s
星下点 -19.61°S, 30.61°W
发射日期 Mar 11, 2021
运行时间 4.7 years
类型 internet

技术详情

分类 Payload
质量 260.00 kg
干质量 248.00 kg
总质量 260.00 kg
长度 0.20 m
直径 2.80 m
跨度 9.00 m
形状 Box + pan
制造商 SPXS
平台类型 Starlink
阶段状态 In Orbit
所有者/国家 SPXS/US

大型星座

Loading constellations...